DW0367 Weather Reports


time (UTC)temp
C
wind
direction
speed
KPH
gust
KPH
rain 1hr
cm
rain 24hr
cm
rain mn
cm
humidity
%
barometer
mb
20260510230704 18 0 1.6 3.2 0.00 0.18 0.05 50 1019.6
20260510230204 18 0 0.0 1.6 0.00 0.18 0.05 51 1019.6
20260510225204 18 355 0.0 1.6 0.00 0.18 0.05 53 1019.6
20260510224704 18 355 0.0 1.6 0.00 0.18 0.05 55 1019.6
20260510224204 18 356 0.0 1.6 0.00 0.18 0.05 51 1019.6
20260510223204 18 355 0.0 1.6 0.00 0.18 0.05 51 1019.6
20260510222704 18 355 0.0 1.6 0.00 0.18 0.05 51 1019.6
20260510222204 18 355 0.0 0.0 0.00 0.18 0.05 53 1019.6
20260510221704 18 355 0.0 1.6 0.00 0.18 0.05 51 1019.6
20260510221203 18 355 0.0 1.6 0.00 0.18 0.05 49 1019.6
20260510220704 18 355 0.0 1.6 0.00 0.18 0.05 53 1019.6
20260510220204 18 355 0.0 1.6 0.00 0.18 0.05 57 1019.6
20260510215703 18 355 0.0 1.6 0.00 0.18 0.05 53 1019.6
20260510215203 18 355 0.0 1.6 0.00 0.18 0.05 55 1019.6
20260510214704 18 355 0.0 1.6 0.00 0.18 0.05 54 1019.6
20260510214204 18 355 0.0 0.0 0.00 0.18 0.05 53 1019.7
20260510213704 18 355 0.0 0.0 0.00 0.18 0.05 52 1019.7
20260510213204 18 355 0.0 1.6 0.00 0.18 0.05 56 1019.8
20260510212704 18 355 0.0 1.6 0.00 0.18 0.05 53 1019.8
20260510210704 18 355 0.0 1.6 0.00 0.18 0.05 52 1019.8
20260510210204 18 355 0.0 3.2 0.00 0.18 0.05 51 1020.0
20260510205704 18 355 0.0 3.2 0.00 0.18 0.05 53 1020.1
20260510204204 18 355 1.6 3.2 0.00 0.18 0.05 47 1019.9
20260510203704 18 355 0.0 1.6 0.00 0.18 0.05 55 1019.8
20260510202204 18 0 0.0 3.2 0.00 0.18 0.05 50 1019.7
20260510201204 18 0 1.6 3.2 0.00 0.18 0.05 46 1019.7
20260510200704 18 0 1.6 3.2 0.00 0.18 0.05 46 1019.8
20260510200204 18 355 0.0 3.2 0.00 0.18 0.05 49 1019.8
20260510195704 18 357 1.6 3.2 0.00 0.18 0.05 47 1019.7
20260510195204 18 0 0.0 3.2 0.00 0.18 0.05 49 1019.8
20260510194704 18 0 1.6 3.2 0.00 0.18 0.05 50 1019.8
20260510194203 18 351 1.6 3.2 0.00 0.18 0.05 48 1019.8
20260510193204 18 344 1.6 3.2 0.00 0.18 0.05 50 1019.8
20260510192203 17 347 0.0 1.6 0.00 0.18 0.05 53 1019.8
20260510191704 17 347 0.0 1.6 0.00 0.18 0.05 57 1019.9
20260510191203 17 347 0.0 0.0 0.00 0.18 0.05 53 1019.8
20260510190703 17 347 0.0 3.2 0.00 0.18 0.05 52 1019.8
20260510185704 18 347 1.6 3.2 0.00 0.18 0.05 55 1019.8
20260510185204 18 347 0.0 3.2 0.00 0.18 0.05 51 1019.8
20260510184704 17 347 1.6 3.2 0.00 0.18 0.05 51 1019.8
20260510184204 17 346 0.0 3.2 0.00 0.18 0.05 53 1019.7
20260510183703 17 348 1.6 3.2 0.00 0.18 0.05 56 1019.7
20260510182204 17 348 1.6 4.8 0.00 0.18 0.05 54 1019.5
20260510181704 17 348 1.6 4.8 0.00 0.18 0.05 53 1019.5
20260510181204 17 71 0.0 4.8 0.00 0.18 0.05 54 1019.4
20260510180204 17 83 1.6 4.8 0.00 0.18 0.05 54 1019.5
20260510175704 17 83 1.6 3.2 0.00 0.18 0.05 56 1019.5
20260510175204 17 49 1.6 3.2 0.00 0.18 0.05 58 1019.6
20260510174704 17 49 1.6 3.2 0.00 0.18 0.05 59 1019.6
20260510173203 17 49 1.6 4.8 0.00 0.18 0.05 61 1019.7
20260510172703 16 55 1.6 4.8 0.00 0.18 0.05 61 1019.9
20260510172204 16 144 1.6 4.8 0.00 0.18 0.05 62 1019.8
20260510171703 16 40 1.6 4.8 0.00 0.18 0.05 60 1019.8
20260510171204 16 117 1.6 3.2 0.00 0.18 0.05 64 1019.8
20260510170703 16 122 0.0 3.2 0.00 0.18 0.05 66 1019.8
20260510170204 16 122 0.0 1.6 0.00 0.18 0.05 66 1019.9
20260510165704 16 122 0.0 0.0 0.00 0.18 0.05 66 1019.9
20260510165204 16 122 0.0 0.0 0.00 0.18 0.05 64 1020.0
20260510164703 16 122 0.0 0.0 0.00 0.18 0.05 62 1019.9
20260510164204 16 122 0.0 3.2 0.00 0.18 0.05 63 1019.9
20260510163703 16 122 0.0 3.2 0.00 0.18 0.05 61 1019.8
20260510163203 16 122 0.0 3.2 0.00 0.18 0.05 64 1019.9
20260510162704 16 122 0.0 4.8 0.00 0.18 0.05 63 1020.0
20260510161204 15 5 1.6 3.2 0.00 0.18 0.05 64 1020.1
20260510160704 15 5 1.6 3.2 0.00 0.18 0.05 65 1020.0
20260510160204 15 5 1.6 3.2 0.00 0.18 0.05 66 1020.1
20260510155704 15 5 0.0 3.2 0.00 0.18 0.05 65 1020.1
20260510154704 15 5 0.0 1.6 0.00 0.18 0.05 67 1020.1
20260510154204 15 5 0.0 3.2 0.00 0.18 0.05 64 1020.0
20260510153704 15 5 0.0 3.2 0.00 0.18 0.05 62 1019.8
20260510153204 15 5 0.0 3.2 0.00 0.18 0.05 68 1019.7
20260510152704 15 5 0.0 3.2 0.00 0.18 0.05 68 1019.6
20260510152204 15 5 1.6 4.8 0.00 0.18 0.05 70 1019.5
20260510151704 14 5 1.6 4.8 0.00 0.18 0.05 72 1019.4
20260510151204 14 5 0.0 3.2 0.00 0.18 0.05 73 1019.3
20260510150703 13 5 0.0 3.2 0.00 0.18 0.05 77 1019.3
20260510150204 13 5 0.0 1.6 0.00 0.18 0.05 76 1019.2
20260510145704 13 5 0.0 1.6 0.00 0.18 0.05 77 1019.2
20260510145204 13 5 0.0 1.6 0.00 0.18 0.05 79 1019.1
20260510144704 13 5 0.0 3.2 0.00 0.18 0.05 79 1019.2
20260510144204 13 5 0.0 3.2 0.00 0.18 0.05 77 1019.2
20260510143704 13 5 0.0 3.2 0.00 0.18 0.05 80 1019.1
20260510143204 13 5 0.0 3.2 0.00 0.18 0.05 78 1018.9
20260510142704 13 5 0.0 3.2 0.00 0.18 0.05 80 1018.7
20260510141703 13 9 0.0 1.6 0.00 0.18 0.05 86 1018.5
20260510141203 12 9 0.0 3.2 0.00 0.18 0.05 84 1018.3
20260510140704 12 9 1.6 3.2 0.00 0.18 0.05 85 1018.1
20260510140204 12 9 0.0 3.2 0.00 0.18 0.05 86 1018.2
20260510135703 12 9 0.0 3.2 0.00 0.18 0.05 87 1018.3
20260510135205 12 9 0.0 3.2 0.00 0.18 0.05 87 1018.4
20260510134704 12 9 0.0 1.6 0.00 0.18 0.05 87 1018.5
20260510133203 12 9 0.0 1.6 0.00 0.18 0.05 89 1018.3
20260510132704 12 9 0.0 3.2 0.00 0.18 0.05 89 1018.3
20260510132204 12 9 0.0 3.2 0.00 0.18 0.05 89 1018.3
20260510131704 12 9 1.6 3.2 0.00 0.18 0.05 90 1018.4
20260510131203 11 9 0.0 3.2 0.00 0.18 0.05 90 1018.3
20260510130703 11 9 0.0 3.2 0.00 0.18 0.05 91 1018.3
20260510130204 11 9 0.0 1.6 0.00 0.18 0.05 91 1018.2
20260510125704 11 9 0.0 1.6 0.00 0.18 0.05 91 1018.1
20260510125204 11 9 0.0 3.2 0.00 0.18 0.05 92 1018.0
20260510124704 11 9 0.0 3.2 0.00 0.18 0.05 92 1018.0
20260510124204 11 9 0.0 1.6 0.00 0.18 0.05 92 1017.8
20260510123204 11 9 0.0 1.6 0.00 0.18 0.05 93 1017.5
20260510122703 11 9 0.0 1.6 0.00 0.18 0.05 93 1017.6
20260510122204 11 9 0.0 1.6 0.00 0.18 0.05 93 1017.5
20260510121704 11 9 0.0 1.6 0.00 0.18 0.05 93 1017.4
20260510121204 11 9 0.0 1.6 0.00 0.18 0.05 93 1017.3
20260510120704 11 9 0.0 0.0 0.00 0.18 0.05 93 1017.4
20260510120203 11 9 0.0 0.0 0.00 0.18 0.05 93 1017.4
20260510115203 11 9 0.0 1.6 0.00 0.18 0.05 93 1017.2
20260510114704 12 9 0.0 1.6 0.00 0.18 0.05 93 1017.0
20260510114203 12 9 0.0 1.6 0.00 0.18 0.05 93 1016.8
20260510113703 12 9 0.0 0.0 0.00 0.18 0.05 93 1016.7
20260510113204 12 9 0.0 1.6 0.00 0.18 0.05 93 1016.6
20260510112704 12 9 0.0 1.6 0.00 0.18 0.05 94 1016.4
20260510112204 12 9 0.0 1.6 0.00 0.18 0.05 94 1016.2
20260510111704 12 9 0.0 0.0 0.00 0.18 0.05 93 1016.2
20260510110704 12 9 0.0 0.0 0.00 0.18 0.05 94 1016.0
20260510110203 12 9 0.0 0.0 0.00 0.18 0.05 94 1015.9
20260510105703 12 9 0.0 1.6 0.00 0.18 0.05 94 1015.7
20260510105204 12 9 0.0 1.6 0.00 0.18 0.05 94 1015.6
20260510104704 12 9 0.0 1.6 0.00 0.18 0.05 94 1015.6
20260510104204 13 9 0.0 1.6 0.00 0.18 0.05 94 1015.5
20260510103704 13 9 0.0 1.6 0.00 0.18 0.05 94 1015.4
20260510103203 13 9 0.0 0.0 0.00 0.18 0.05 94 1015.2
20260510102704 13 9 0.0 1.6 0.00 0.18 0.05 93 1015.2
20260510102204 13 9 0.0 1.6 0.00 0.18 0.05 94 1015.2
20260510101704 13 9 0.0 1.6 0.00 0.18 0.05 94 1015.1
20260510101204 13 9 0.0 0.0 0.00 0.18 0.05 94 1015.1
20260510100703 13 9 0.0 0.0 0.00 0.18 0.05 94 1015.1
20260510100204 13 9 0.0 0.0 0.00 0.18 0.05 94 1015.0
20260510095704 13 9 0.0 1.6 0.00 0.18 0.05 94 1014.9
20260510095203 13 9 0.0 1.6 0.00 0.18 0.05 94 1014.7
20260510094704 13 9 0.0 1.6 0.00 0.18 0.05 94 1014.7
20260510094204 13 9 0.0 1.6 0.00 0.18 0.05 94 1014.7
20260510093704 13 9 0.0 0.0 0.00 0.18 0.05 94 1014.7
20260510093204 13 9 0.0 0.0 0.00 0.18 0.05 94 1014.8
20260510092204 13 9 0.0 1.6 0.00 0.18 0.05 94 1014.9
20260510091703 13 9 0.0 1.6 0.00 0.18 0.05 93 1014.8
20260510091204 13 9 0.0 0.0 0.00 0.18 0.05 93 1014.7
20260510090703 13 9 0.0 1.6 0.00 0.18 0.05 94 1014.5
20260510090205 13 9 0.0 1.6 0.00 0.18 0.05 94 1014.4
20260510085705 14 9 0.0 1.6 0.00 0.18 0.05 93 1014.3
20260510085203 14 9 0.0 1.6 0.00 0.18 0.05 93 1014.1
20260510084704 14 9 0.0 1.6 0.00 0.18 0.05 93 1014.1
20260510084204 14 9 0.0 1.6 0.00 0.18 0.05 93 1013.9
20260510083703 14 9 1.6 1.6 0.00 0.18 0.05 93 1013.9
20260510083204 14 9 0.0 1.6 0.00 0.18 0.05 93 1013.9
20260510082704 14 9 0.0 0.0 0.00 0.18 0.05 93 1013.8
20260510082204 14 9 0.0 0.0 0.00 0.18 0.05 93 1013.7
20260510081704 14 9 0.0 0.0 0.00 0.18 0.05 93 1013.6
20260510080704 14 9 0.0 0.0 0.00 0.18 0.05 93 1013.4
20260510080204 14 9 0.0 0.0 0.00 0.18 0.05 93 1013.3
20260510075704 14 9 0.0 0.0 0.00 0.18 0.05 93 1013.2
20260510075204 14 9 0.0 0.0 0.00 0.18 0.05 93 1013.0
20260510074703 15 9 0.0 0.0 0.00 0.18 0.05 93 1013.1
20260510074204 15 9 0.0 0.0 0.00 0.18 0.05 93 1013.1
20260510073704 15 9 0.0 0.0 0.00 0.18 0.05 93 1013.1
20260510073204 15 9 0.0 1.6 0.00 0.18 0.05 93 1013.1
20260510072704 15 9 0.0 1.6 0.00 0.18 0.05 93 1013.0
20260510072204 15 9 0.0 0.0 0.00 0.18 0.05 92 1013.1
20260510071703 15 9 0.0 0.0 0.00 0.18 0.05 92 1013.1
20260510071204 15 9 0.0 0.0 0.00 0.18 0.05 92 1012.8
20260510070704 15 9 0.0 0.0 0.00 0.18 0.05 92 1012.6
20260510070203 15 9 0.0 0.0 0.00 0.18 0.05 92 1012.6
20260510065704 15 9 0.0 0.0 0.00 0.18 0.05 92 1012.6
20260510065204 15 9 0.0 0.0 0.00 0.18 0.05 92 1012.7
20260510064704 15 9 0.0 1.6 0.00 0.18 0.05 92 1012.8
20260510064204 15 9 0.0 1.6 0.00 0.18 0.05 92 1012.7
20260510063705 15 9 0.0 1.6 0.00 0.18 0.05 92 1012.7
20260510063204 15 9 0.0 3.2 0.00 0.18 0.05 92 1012.8
20260510062703 15 9 0.0 3.2 0.03 0.18 0.05 92 1012.8
20260510062203 15 9 1.6 3.2 0.03 0.18 0.05 92 1012.8
20260510061703 15 9 1.6 3.2 0.05 0.18 0.05 92 1012.8
20260510061204 15 9 0.0 1.6 0.05 0.18 0.05 92 1012.8
20260510060204 15 9 0.0 1.6 0.05 0.18 0.05 92 1012.6
20260510055204 15 9 1.6 4.8 0.05 0.18 0.05 92 1012.6
20260510054703 15 9 1.6 4.8 0.10 0.18 0.05 91 1011.9
20260510053704 16 9 1.6 4.8 0.00 0.18 0.05 91 1011.7
20260510053204 16 257 0.0 4.8 0.00 0.18 0.05 91 1011.4
20260510052704 16 257 0.0 4.8 0.00 0.15 0.03 90 1011.6
20260510052204 16 331 1.6 4.8 0.00 0.15 0.03 92 1012.1
20260510051203 16 41 0.0 1.6 0.00 0.13 0.00 91 1011.9
20260510050203 16 41 1.6 1.6 0.00 0.13 0.00 91 1011.8
20260510045704 16 40 0.0 3.2 0.13 0.13 0.13 90 1012.1
20260510045204 16 40 0.0 3.2 0.13 0.13 0.13 90 1012.1
20260510044705 16 40 1.6 3.2 0.10 0.10 0.10 89 1012.4
20260510043704 16 42 0.0 3.2 0.05 0.05 0.05 89 1012.4
20260510043204 16 42 1.6 3.2 0.05 0.05 0.05 88 1012.5
20260510042704 16 42 0.0 3.2 0.03 0.05 0.03 88 1012.8
20260510042204 16 42 0.0 3.2 0.03 0.05 0.03 87 1012.6
20260510041704 16 42 1.6 3.2 0.03 0.05 0.03 87 1012.5
20260510041204 16 42 0.0 1.6 0.00 0.03 0.00 86 1012.0
20260510040204 17 42 1.6 4.8 0.00 0.03 0.00 85 1012.1
20260510035704 17 42 0.0 4.8 0.00 0.03 0.00 85 1011.8
20260510035204 17 5 1.6 4.8 0.00 0.03 0.00 84 1012.0
20260510033704 18 5 1.6 4.8 0.00 0.05 0.00 81 1012.3
20260510033204 18 5 1.6 4.8 0.00 0.05 0.00 79 1012.3
20260510032704 18 0 1.6 4.8 0.00 0.10 0.00 78 1012.2
20260510032204 19 0 1.6 4.8 0.00 0.13 0.00 76 1012.2
20260510031704 19 0 3.2 12.9 0.00 0.18 0.00 72 1012.1
20260510031204 19 355 3.2 12.9 0.00 0.18 0.00 71 1011.8
20260510030703 19 246 1.6 4.8 0.00 0.23 0.00 70 1010.6
20260510030203 19 245 0.0 1.6 0.00 0.25 0.00 69 1010.1
20260510025704 19 245 0.0 1.6 0.00 0.28 0.00 71 1010.0
20260510025204 19 245 0.0 0.0 0.00 0.30 0.00 68 1009.9
20260510024704 19 245 0.0 0.0 0.00 0.38 0.00 69 1009.7
20260510023704 20 245 0.0 0.0 0.00 0.46 0.00 69 1009.6
20260510023204 20 245 0.0 0.0 0.00 0.51 0.00 68 1009.6
20260510022704 20 245 0.0 0.0 0.00 0.56 0.00 69 1009.6
20260510022204 20 245 0.0 0.0 0.00 0.58 0.00 68 1009.5
20260510020704 20 245 0.0 0.0 0.00 0.76 0.00 66 1009.4
20260510015204 20 245 0.0 0.0 0.00 0.79 0.00 63 1008.9
20260510014204 21 245 0.0 0.0 0.00 0.79 0.00 62 1008.8
20260510013704 21 245 0.0 0.0 0.00 0.79 0.00 61 1008.8
20260510013203 21 245 0.0 0.0 0.00 0.79 0.00 61 1008.7
20260510011204 22 245 0.0 0.0 0.00 0.79 0.00 57 1008.8
20260510010704 22 245 0.0 0.0 0.00 0.79 0.00 56 1008.7
20260510010204 22 245 0.0 0.0 0.00 0.79 0.00 56 1008.7
20260510005704 22 245 0.0 0.0 0.00 0.79 0.00 56 1008.6
20260510005204 22 245 0.0 0.0 0.00 0.79 0.00 55 1008.6
20260510004204 22 245 0.0 0.0 0.00 0.81 0.00 55 1008.4
20260510003704 23 245 0.0 0.0 0.00 0.81 0.00 55 1008.3
20260510003204 23 245 0.0 0.0 0.00 0.84 0.00 53 1008.3
20260510002703 23 245 0.0 0.0 0.00 0.84 0.00 54 1008.3
20260510002204 23 245 0.0 0.0 0.00 0.86 0.00 51 1008.3
20260510001704 23 245 0.0 0.0 0.00 0.91 0.00 53 1008.3
20260510001204 23 245 0.0 0.0 0.00 0.91 0.00 50 1008.3
20260510000703 24 245 0.0 0.0 0.00 0.91 0.00 51 1008.2
20260510000204 24 245 0.0 1.6 0.00 0.91 0.00 51 1008.2
20260509235704 24 245 0.0 1.6 0.00 0.91 0.00 50 1008.2
20260509235203 25 245 0.0 1.6 0.00 0.91 0.00 50 1008.2
20260509234705 25 245 0.0 1.6 0.00 0.91 0.00 49 1008.1
20260509234204 25 245 0.0 1.6 0.00 0.91 0.00 49 1008.2
20260509233703 25 245 0.0 1.6 0.00 0.91 0.00 48 1008.1
20260509233204 25 245 0.0 1.6 0.00 0.91 0.00 47 1008.2
20260509232703 25 245 0.0 1.6 0.00 0.91 0.00 48 1008.1
20260509232204 25 245 0.0 3.2 0.00 0.91 0.00 44 1008.1
20260509231704 25 245 1.6 3.2 0.00 0.91 0.00 45 1008.1
20260509231204 25 245 1.6 1.6 0.00 0.91 0.00 46 1008.1